Greenville/Spartanburg, SC

10:17 PM EDT on April 26, 2017 (GMT -0400)
Greenville-Spartanburg International

Weather History for KGSP - October, 2012

Change the Weather History Date:

Thursday, October 25, 2012

  Actual Average Record
Temperature  
Mean Temperature 64 °F 59 °F  
Max Temperature 78 °F 70 °F 86 °F (1931)
Min Temperature 50 °F 48 °F 27 °F (1965)
Degree Days  
Heating Degree Days 1 7  
Month to date heating degree days 100 106  
Since 1 July heating degree days 104 123  
Cooling Degree Days 0 1  
Month to date cooling degree days 28 44  
Year to date cooling degree days 1817 1706  
Growing Degree Days 14 (Base 50)    
Moisture  
Dew Point 54 °F    
Average Humidity 68    
Maximum Humidity 89    
Minimum Humidity 47    
Precipitation  
Precipitation 0.00 in 0.11 in 4.57 in (1918)
Month to date precipitation 2.42 2.82  
Year to date precipitation 32.14 38.76  
Snow  
Snow 0.00 in 0.00 in 0.00 in ()
Month to date snowfall 0.0 0.0  
Since 1 July snowfall T 0.0  
Since 1 September snowfall 0.0 0.0  
Snow Depth 0.00 in    
Sea Level Pressure  
Sea Level Pressure 30.10 in    
Wind  
Wind Speed 3 mph (NE)    
Max Wind Speed 10 mph    
Max Gust Speed 15 mph    
Visibility 10 miles    
Events      
T = Trace of Precipitation, MM = Missing Value Source: NWS Daily Summary

Daily Weather History Graph

Daily Weather History Graph

Search for Another Location

Airport or City:

Trip Planner

Search our weather history database for the weather conditions in past years. The results will help you decide how hot, cold, wet, or windy it might be!

Date:

Astronomy

Oct. 25, 2012 Rise Set
Actual Time 7:43 AM EDT 6:41 PM EDT
Civil Twilight 7:17 AM EDT 7:07 PM EDT
Nautical Twilight 6:48 AM EDT 7:36 PM EDT
Astronomical Twilight 6:18 AM EDT 8:06 PM EDT
Moon 4:19 PM EDT (10/25) 3:47 AM EDT (10/25)
Length of Visible Light 11h 49m
Length of Day
10h 57m
Waxing Gibbous, 84% of the Moon is Illuminated
Oct 25
Waxing Gibbous
Oct 29
Full
Nov 6
Last Quarter
Nov 13
New
Nov 20
First Quarter

Hourly Weather History & Observations

Time (EDT) Temp. Dew Point Humidity Pressure Visibility Wind Dir Wind Speed Gust Speed Precip Events Conditions
12:53 AM 55.0 °F 50.0 °F 83% 30.11 in 10.0 mi Calm Calm - N/A   Clear
1:53 AM 55.9 °F 50.0 °F 80% 30.11 in 10.0 mi NNE 3.5 mph - N/A   Clear
2:53 AM 54.0 °F 50.0 °F 86% 30.10 in 10.0 mi NE 3.5 mph - N/A   Clear
3:53 AM 53.1 °F 50.0 °F 89% 30.09 in 10.0 mi Calm Calm - N/A   Clear
4:53 AM 52.0 °F 48.9 °F 89% 30.09 in 10.0 mi NE 3.5 mph - N/A   Clear
5:53 AM 52.0 °F 48.9 °F 89% 30.09 in 10.0 mi Calm Calm - N/A   Clear
6:53 AM 55.0 °F 48.9 °F 80% 30.10 in 10.0 mi Calm Calm - N/A   Clear
7:53 AM 51.1 °F 48.0 °F 89% 30.11 in 10.0 mi Calm Calm - N/A   Clear
8:53 AM 57.0 °F 52.0 °F 83% 30.13 in 10.0 mi Calm Calm - N/A   Clear
9:25 AM 62.6 °F 53.6 °F 72% 30.15 in 5.0 mi NE 3.5 mph - N/A   Haze
9:53 AM 63.0 °F 53.1 °F 70% 30.14 in 9.0 mi NE 4.6 mph - N/A   Clear
10:53 AM 69.1 °F 55.9 °F 63% 30.14 in 10.0 mi NE 3.5 mph - N/A   Clear
11:53 AM 73.9 °F 59.0 °F 59% 30.14 in 10.0 mi Calm Calm - N/A   Scattered Clouds
12:53 PM 73.9 °F 57.9 °F 57% 30.12 in 10.0 mi East 8.1 mph - N/A   Mostly Cloudy
1:53 PM 73.9 °F 57.0 °F 55% 30.10 in 10.0 mi East 8.1 mph - N/A   Mostly Cloudy
2:53 PM 77.0 °F 57.0 °F 50% 30.07 in 10.0 mi East 6.9 mph - N/A   Mostly Cloudy
3:53 PM 78.1 °F 57.0 °F 48% 30.06 in 10.0 mi Calm Calm - N/A   Mostly Cloudy
4:53 PM 77.0 °F 55.0 °F 47% 30.06 in 10.0 mi Calm Calm - N/A   Scattered Clouds
5:53 PM 73.9 °F 57.0 °F 55% 30.07 in 10.0 mi NE 4.6 mph - N/A   Partly Cloudy
6:53 PM 71.1 °F 57.0 °F 61% 30.07 in 10.0 mi NE 4.6 mph - N/A   Partly Cloudy
7:53 PM 69.8 °F 57.2 °F 64% 30.10 in 10.0 mi NNE 3.5 mph - N/A   Partly Cloudy
8:53 PM 64.0 °F 57.0 °F 78% 30.08 in 10.0 mi Calm Calm - N/A   Clear
9:53 PM 66.0 °F 57.0 °F 73% 30.08 in 10.0 mi NNE 3.5 mph - N/A   Mostly Cloudy
10:53 PM 64.9 °F 57.0 °F 75% 30.07 in 10.0 mi NNE 4.6 mph - N/A   Scattered Clouds
11:53 PM 64.9 °F 57.0 °F 75% 30.06 in 10.0 mi NNE 4.6 mph - N/A   Mostly Cloudy